Lid_Strength_Index
16 15 15 15 15 15 16 15 17 16 17 16 15 16 15 15 14 13 13 13 12 12 13 13 12 12 11 11 11 11 11 10 10 10 9 10 10 10 9 9 9 8 7 6
18 15 16 17 16 15 17 17 16 18 19 16 15 15 15 15 14 14 13 12 12 12 12 12 11 11 11 11 11 11 11 11 10 10 10 10 10 10 10 10 10 9 9 8
21 17 17 18 17 17 17 16 16 19 17 16 16 15 16 15 14 14 14 13 13 12 12 11 11 11 11 11 11 11 11 11 10 10 10 10 10 10 10 10 11 10 10 9
20 19 23 18 14 14 15 15 15 15 15 14 15 14 14 13 14 14 14 13 13 13 12 11 11 11 11 11 11 11 11 11 11 10 10 10 11 11 11 10 11 10 10 10
21 21 19 16 15 15 16 15 14 15 14 13 13 13 13 11 11 12 12 12 11 11 12 12 11 11 11 11 11 11 11 11 10 10 10 10 11 11 11 11 10 10 10 10
19 20 20 18 14 12 13 18 13 13 13 13 13 16 14 11 11 11 11 11 11 10 10 10 10 10 11 11 11 12 11 10 10 10 10 10 10 10 11 11 10 10 10 9
18 18 17 14 13 12 17 17 13 13 13 13 14 13 12 11 11 11 11 11 10 11 11 11 10 10 11 11 11 10 10 9 9 9 10 10 10 11 10 10 10 10 10 10
17 17 18 10 12 15 13 12 12 12 12 12 12 12 11 11 11 11 12 12 11 12 12 11 11 11 11 12 11 11 10 11 10 10 9 9 9 9 10 10 11 11 10 10
16 16 12 12 11 10 11 12 12 12 11 11 11 11 11 11 12 12 12 12 12 12 12 12 12 12 12 12 11 11 11 11 11 11 10 10 10 10 9 9 9 10 10 10
15 14 13 11 10 10 10 10 9 9 10 10 11 11 12 12 12 12 12 12 12 12 12 12 11 11 11 10 10 10 11 11 11 11 10 10 10 9 10 10 10 9 9 9
15 13 11 10 9 9 8 8 8 8 8 9 10 10 11 11 11 11 11 11 11 11 11 11 11 11 11 11 11 12 11 11 11 11 10 10 9 9 9 9 8 9 9 8
14 10 10 10 7 7 7 7 7 8 9 9 9 9 9 10 10 10 10 10 10 10 10 11 11 11 11 11 11 12 12 12 12 12 11 11 11 11 8 8 7 7 7 7
9 8 8 7 6 6 7 8 7 8 8 9 9 9 9 10 10 9 9 10 10 10 10 10 10 10 10 10 10 10 10 10 9 10 10 11 11 11 12 9 8 8 7 7
7 7 8 7 7 6 7 7 7 8 8 8 9 9 9 10 10 10 11 10 10 10 11 11 11 10 10 9 10 11 11 9 10 10 10 10 10 10 11 12 12 11 8 8
7 7 6 6 6 7 7 8 9 9 9 9 9 10 10 10 10 10 10 10 10 10 11 11 11 11 10 10 11 11 11 11 11 11 11 10 11 11 11 11 11 11 10 9
7 6 7 7 7 8 8 9 10 10 9 9 9 10 10 9 10 10 10 10 12 11 11 10 10 9 9 9 11 10 10 10 10 11 11 11 12 12 12 12 12 12 12 11
8 8 7 8 8 9 9 9 9 9 9 9 9 9 10 10 11 11 11 10 11 10 10 10 10 10 9 9 11 10 10 10 9 10 10 11 11 12 12 12 13 13 13 11
5 6 6 7 8 9 9 9 8 8 8 9 9 10 11 11 12 12 12 11 11 11 11 11 9 10 10 10 10 10 10 10 11 11 10 10 10 11 11 12 12 13 13 12
6 7 7 7 8 8 9 9 8 8 8 9 10 11 12 12 12 12 12 12 13 13 12 11 9 10 11 10 9 10 10 11 11 11 11 11 11 11 11 11 12 12 12 12
7 7 7 7 7 8 8 8 8 8 8 10 11 12 13 12 12 13 13 14 13 12 11 11 10 11 11 10 9 11 10 11 11 11 11 11 11 11 11 11 11 12 12 12
7 7 7 8 8 8 8 8 8 8 9 10 12 12 13 13 12 13 13 13 12 11 10 9 10 10 10 10 10 11 11 11 11 11 12 11 11 11 11 11 11 11 11 11
7 7 7 8 8 9 8 8 8 9 10 11 11 12 13 13 13 13 13 14 12 9 10 11 11 8 9 10 11 11 11 11 11 11 11 11 11 11 11 11 11 10 10 10
8 7 7 8 9 9 8 8 9 10 11 11 12 12 13 13 15 15 15 13 12 10 11 12 8 7 8 11 11 11 12 12 12 11 11 11 12 11 11 11 10 11 10 10
8 8 8 7 8 8 9 10 10 11 11 11 12 12 12 12 13 12 12 10 9 9 10 10 8 7 9 11 12 12 13 13 13 11 11 10 11 11 11 11 10 10 9 9
8 8 8 8 8 9 9 10 11 12 12 11 11 11 11 12 14 14 15 13 10 10 14 10 9 9 13 13 13 13 13 13 12 11 12 13 13 12 12 11 11 9 9 9
9 8 8 8 9 9 10 11 11 11 11 11 12 12 14 14 14 13 15 12 12 11 13 13 13 12 14 13 13 14 15 15 14 15 12 15 15 14 13 13 12 11 9 9
9 7 9 10 10 10 11 11 11 12 11 13 15 17 16 16 15 13 12 17 18 18 18 17 17 15 15 16 17 17 16 16 12 13 16 14 14 13 13 12 12 11 9 9